Location: Unspecified
(0.0000°N, 0.0000°E)
Time: 08:12:52
(UTC+00:00)

METEOR M2 - Pass Details

Date: 30 November 2022
Orbit: 818 x 827 km, 98.4° (Epoch: 01 February)

Event Time Altitude Azimuth Distance (km) Brightness Sun altitude
Rises 05:03:15 0° 51° (NE) 3,337 ? -10.5°
Reaches altitude 10° 05:07:14 10° 81° (E) 2,408 ? -9.6°
Maximum altitude 05:09:13 12° 103° (ESE) 2,264 ? -9.1°
Drops below altitude 10° 05:11:11 10° 125° (SE) 2,410 ? -8.7°
Sets 05:15:09 0° 155° (SSE) 3,345 ? -7.8°
